Regional Weather Roundup
Issued by NWS Upton, NY

Current Version | Previous Version | Text Only | Print | Product List | Glossary On
Versions: 1 2 3 4 5 6 7 8 9 10 11 12 13 14 15 16 17 18 19 20 21 22 23 24 25 26 27 28 29 30 31 32 33 34 35 36 37 38 39 40 41 42 43 44 45 46 47 48 49 50
000 ASUS41 KOKX 050718 RWROKX REGIONAL WEATHER ROUNDUP NATIONAL WEATHER SERVICE NEW YORK NY 300 AM EDT SUN JUL 05 2015 NOTE: "FAIR" INDICATES FEW OR NO CLOUDS BELOW 12,000 FEET WITH NO SIGNIFICANT WEATHER AND/OR OBSTRUCTIONS TO VISIBILITY. NYZ071-072-176-178-NJZ106-104-050800- NEW YORK CITY METRO AREA CITY SKY/WX TMP DP RH WIND PRES REMARKS CENTRAL PARK CLOUDY 69 58 67 CALM 30.07S LAGUARDIA APRT MOCLDY 70 61 73 CALM 30.03F KENNEDY INTL MOCLDY 68 63 84 SW5 30.04F NEWARK/LIBERTY MOCLDY 70 59 68 CALM 30.04S BRNX BOT. GARD N/A 63 59 88 NE1 30.06S TETERBORO MOCLDY 67 59 75 CALM 30.03S $$ NYZ177-179-078>081-050800- LONG ISLAND NEW YORK CITY SKY/WX TMP DP RH WIND PRES REMARKS FARMINGDALE MOCLDY 66 56 70 CALM 30.04F ISLIP MOCLDY 64 55 72 CALM 30.02F HAZE SHIRLEY CLOUDY 63 57 81 CALM 30.04F HAZE WESTHAMPTON CLOUDY 59 57 93 CALM 30.05S MONTAUK POINT N/A 66 61 84 W3 30.04S $$ NYZ052-065-067-050800- HUDSON VALLEY CITY SKY/WX TMP DP RH WIND PRES REMARKS WHITE PLAINS CLEAR 61 58 90 NW3 30.04S NEWBURGH PTCLDY 59 59 100 CALM 30.06R FOG MONTGOMERY CLOUDY 58 58 100 S3 30.05R FOG POUGHKEEPSIE CLEAR 58 55 90 CALM 30.04R FOG ALBANY PTCLDY 59 56 89 CALM 30.03R FOG $$ NJZ001-105-106-008-010-013-015-019>022-104-050800- NEW JERSEY CITY SKY/WX TMP DP RH WIND PRES REMARKS NEWARK/LIBERTY MOCLDY 70 59 68 CALM 30.04S TETERBORO MOCLDY 67 59 75 CALM 30.03S CALDWELL PTCLDY 62 58 86 CALM 30.05S MORRISTOWN PTCLDY 63 59 88 CALM 30.05S FOG SOMERVILLE MOCLDY 63 60 90 CALM 30.03S SUSSEX CLEAR 60 58 92 CALM 30.06S FOG ANDOVER N/A 62 61 96 CALM 30.07R TRENTON CLOUDY 67 59 75 CALM 30.04F MILLVILLE CLOUDY 67 62 84 CALM 30.05R ATLANTIC CITY CLOUDY 67 62 84 CALM 30.04S WRIGHTSTOWN CLOUDY 68 58 69 NW2 30.03S TOMS RIVER CLOUDY 68 61 77 CALM 30.05S BELMAR CLOUDY 68 57 68 CALM 30.04F $$ PAZ047>061-062-071-050800- EASTERN PENNSYLVANIA CITY SKY/WX TMP DP RH WIND PRES REMARKS PHILADELPHIA CLOUDY 71 57 61 CALM 30.06S ALLENTOWN CLOUDY 64 62 93 NW3 30.06S FOG SCRANTON FOG 63 61 93 W3 30.09R VSB 1/4 $$ CTZ002-004>006-009-010-012-RIZ004-006-007-MAZ004-011-015-050800- SOUTHERN NEW ENGLAND IN CT CITY SKY/WX TMP DP RH WIND PRES REMARKS BRADLEY INTL CLEAR 58 56 93 S3 30.02S FOG HARTFORD CLEAR 59 57 93 S3 30.03S FOG DANBURY CLEAR 56 52 86 CALM 30.06S FOG WTRBRY/OXFORD CLEAR 57 52 82 CALM 30.06S BRIDGEPORT PTCLDY 64 61 90 NW3 30.03F FOG MERIDEN FOG 57 55 93 CALM 30.04S VSB 3/4 NEW HAVEN PTCLDY 58 55 90 CALM 30.04S FOG CHESTER FAIR 59 55 88 W3 30.04F GROTON PTCLDY 60 58 92 CALM 30.02S FOG WILLIMANTIC CLEAR 57 55 93 CALM 30.03F FOG IN RI CITY SKY/WX TMP DP RH WIND PRES REMARKS PROVIDENCE CLEAR 61 58 90 W5 30.02S BLOCK ISLAND PTCLDY 61 57 88 W5 30.02F WESTERLY CLEAR 57 55 93 CALM 30.03S FOG IN MA CITY SKY/WX TMP DP RH WIND PRES REMARKS BOSTON CLEAR 62 59 90 SW5 30.00S WORCESTER CLEAR 61 56 83 W13 30.02S WESTFIELD CLEAR 56 55 97 CALM 30.03R FOG PROVINCETOWN CLEAR 50 -2 11 W5 30.00S NANTUCKET CLEAR 56 54 93 CALM 30.00S FOG $$ ANZ330-335-338-340-345-350-353-355-050800- COASTAL MARINE OBSERVATIONS STATION/POSITION TIME SKY/WX TEMP WIND PRES VSBY WAVE AIR SEA DIR/SP/G HT/PER (UTC) (F) (DEG/KT/KT) (MB) (MI) (FT/S) NY HARB ENTRANCE 0650 69 69 210/ 2/ 4 1016.8 3/ 8 4S FIRE IS 0603 70 N/A 3/ 9 20S FIRE ISLAND 0650 69 69 260/ 2/ 4 1016.9 4/ 9 GREAT SOUTH BAY 0615 70 74 300/ 4/ 6 N/A 23SW MTP 0650 67 68 300/ 8/ 8 1016.7 3/ 9 HUDSON CANYON NOT AVBL KINGS POINT 0600 68 66 160/ 2/ 3 1016.7 CENTRAL LI SOUND NOT AVBL EASTERN LI SOUND 0600 63 63 270/ 6/ 8 N/A ROBBINS REEF 0600 71 250/ 2/ 2 1016.3 $$ >>>>>>>>>>>>>>>>>>>>>>>>>>>> KEY <<<<<<<<<<<<<<<<<<<<<<<<<<< > < > SKY/WX - SKY CONDITION/PRESENT WEATHER < > TMP - TEMPERATURE IN FAHRENHEIT < > DP - DEWPOINT IN FAHRENHEIT < > RH - RELATIVE HUMIDITY IN PERCENT < > WIND - DIRECTION AND SPEED IN MPH < > PRES - MEAN SEA LEVEL PRESSURE IN INCHES OF HG < > WCI - WIND CHILL INDEX < > VSB - VISIBILITY IN MILES < > HX - HEAT INDEX < > TC - TEMPERATURE IN CELSIUS < > VRB - VARIABLE WIND DIRECTION < > < >>>>>>>>>>>>>>>>>>>>>>>>>>>> KEY <<<<<<<<<<<<<<<<<<<<<<<<<<<

USA.gov is the U.S. government's official web portal to all federal, state and local government web resources and services.